| time (UTC) | temp F | wind direction | speed MPH | gust MPH | rain 1hr in | rain 24hr in | rain mn in | humidity % | barometer mb |
| 20260904071607 | 52 | 217 | 6.0 | 8.0 | 0.00 | 0.00 | 0.00 | 86 | 1007.0 |
| 20260904070109 | 52 | 189 | 5.0 | 8.0 | 0.00 | 0.00 | 0.00 | 87 | 1006.7 |
| 20260904064607 | 52 | 189 | 6.0 | 8.0 | 0.00 | 0.01 | 0.00 | 88 | 1006.6 |
| 20260904063106 | 52 | 190 | 6.0 | 8.0 | 0.00 | 0.01 | 0.00 | 88 | 1006.5 |
| 20260904061606 | 52 | 200 | 5.0 | 7.0 | 0.00 | 0.01 | 0.00 | 88 | 1006.4 |
| 20260904060107 | 52 | 179 | 4.0 | 7.0 | 0.00 | 0.01 | 0.00 | 87 | 1006.2 |
| 20260904054608 | 53 | 158 | 4.0 | 6.0 | 0.00 | 0.01 | 0.01 | 87 | 1006.1 |
| 20260904053108 | 53 | 186 | 3.0 | 5.0 | 0.00 | 0.01 | 0.01 | 86 | 1006.2 |
| 20260904051607 | 54 | 186 | 3.0 | 4.0 | 0.00 | 0.01 | 0.01 | 86 | 1006.1 |
| 20260904050107 | 55 | 186 | 3.0 | 5.0 | 0.00 | 0.01 | 0.01 | 86 | 1006.1 |
| 20260904044612 | 55 | 186 | 4.0 | 6.0 | 0.00 | 0.19 | 0.01 | 85 | 1006.1 |
| 20260904043105 | 55 | 186 | 3.0 | 5.0 | 0.00 | 0.19 | 0.01 | 85 | 1005.9 |
| 20260904041608 | 56 | 186 | 4.0 | 5.0 | 0.00 | 0.19 | 0.01 | 84 | 1005.8 |
| 20260904040110 | 56 | 183 | 4.0 | 6.0 | 0.00 | 0.19 | 0.01 | 82 | 1005.6 |
| 20260904034605 | 57 | 182 | 3.0 | 5.0 | 0.00 | 0.31 | 0.01 | 81 | 1005.6 |
| 20260904033112 | 57 | 183 | 3.0 | 6.0 | 0.00 | 0.31 | 0.01 | 80 | 1005.6 |
| 20260904031606 | 59 | 189 | 4.0 | 5.0 | 0.00 | 0.31 | 0.01 | 77 | 1005.6 |
| 20260904030110 | 60 | 189 | 3.0 | 5.0 | 0.00 | 0.31 | 0.01 | 75 | 1005.5 |
| 20260904024616 | 62 | 189 | 3.0 | 6.0 | 0.00 | 0.43 | 0.01 | 73 | 1005.4 |
| 20260904023110 | 63 | 208 | 4.0 | 8.0 | 0.00 | 0.43 | 0.01 | 70 | 1005.3 |
| 20260904021608 | 65 | 237 | 4.0 | 7.0 | 0.00 | 0.43 | 0.01 | 67 | 1005.0 |
| 20260904020112 | 67 | 209 | 4.0 | 6.0 | 0.00 | 0.43 | 0.01 | 64 | 1004.7 |
| 20260904014612 | 68 | 235 | 4.0 | 11.0 | 0.00 | 0.43 | 0.01 | 61 | 1004.5 |
| 20260904013116 | 70 | 251 | 9.0 | 12.0 | 0.00 | 0.43 | 0.01 | 58 | 1004.3 |
| 20260904011615 | 72 | 241 | 8.0 | 15.0 | 0.00 | 0.43 | 0.01 | 54 | 1004.2 |
| 20260904010113 | 73 | 235 | 8.0 | 15.0 | 0.00 | 0.43 | 0.01 | 50 | 1003.8 |
| 20260904004609 | 75 | 218 | 9.0 | 16.0 | 0.00 | 0.43 | 0.01 | 45 | 1003.6 |
| 20260904003107 | 75 | 218 | 11.0 | 17.0 | 0.00 | 0.43 | 0.01 | 46 | 1003.5 |
| 20260904001605 | 73 | 216 | 8.0 | 16.0 | 0.00 | 0.43 | 0.01 | 51 | 1003.3 |
| 20260904000108 | 74 | 195 | 8.0 | 16.0 | 0.00 | 0.43 | 0.01 | 49 | 1003.1 |
| 20260903234607 | 75 | 175 | 10.0 | 20.0 | 0.00 | 0.43 | 0.01 | 48 | 1003.1 |
| 20260903233107 | 75 | 204 | 8.0 | 19.0 | 0.00 | 0.43 | 0.01 | 48 | 1003.0 |
| 20260903231606 | 76 | 235 | 11.0 | 19.0 | 0.00 | 0.43 | 0.01 | 47 | 1003.0 |
| 20260903230105 | 77 | 230 | 12.0 | 23.0 | 0.00 | 0.43 | 0.01 | 47 | 1003.1 |
| 20260903224610 | 77 | 222 | 11.0 | 19.0 | 0.00 | 0.43 | 0.01 | 47 | 1003.1 |
| 20260903223106 | 76 | 228 | 12.0 | 20.0 | 0.00 | 0.43 | 0.01 | 49 | 1002.8 |
| 20260903221605 | 76 | 247 | 12.0 | 25.0 | 0.00 | 0.43 | 0.01 | 48 | 1002.8 |
| 20260903220124 | 75 | 217 | 12.0 | 17.0 | 0.00 | 0.43 | 0.01 | 49 | 1002.7 |
| 20260903214608 | 74 | 227 | 16.0 | 26.0 | 0.00 | 0.43 | 0.01 | 49 | 1002.6 |
| 20260903213106 | 75 | 194 | 12.0 | 23.0 | 0.00 | 0.43 | 0.01 | 49 | 1002.6 |
| 20260903211607 | 73 | 219 | 8.0 | 22.0 | 0.00 | 0.43 | 0.01 | 50 | 1002.4 |
| 20260903210110 | 73 | 214 | 11.0 | 24.0 | 0.00 | 0.43 | 0.01 | 50 | 1002.5 |
| 20260903204606 | 74 | 226 | 12.0 | 22.0 | 0.00 | 0.43 | 0.01 | 51 | 1002.4 |
| 20260903203133 | 75 | 235 | 14.0 | 21.0 | 0.00 | 0.43 | 0.01 | 49 | 1002.7 |
| 20260903201605 | 75 | 223 | 13.0 | 26.0 | 0.00 | 0.43 | 0.01 | 50 | 1002.4 |
| 20260903200105 | 74 | 233 | 15.0 | 24.0 | 0.00 | 0.43 | 0.01 | 54 | 1002.4 |
| 20260903194608 | 74 | 247 | 14.0 | 24.0 | 0.00 | 0.43 | 0.01 | 53 | 1002.4 |
| 20260903193113 | 73 | 185 | 16.0 | 29.0 | 0.00 | 0.43 | 0.01 | 53 | 1002.3 |
| 20260903191607 | 72 | 220 | 15.0 | 26.0 | 0.00 | 0.43 | 0.01 | 54 | 1002.4 |
| 20260903190111 | 72 | 210 | 15.0 | 28.0 | 0.00 | 0.43 | 0.01 | 56 | 1002.4 |
| 20260903184606 | 71 | 227 | 14.0 | 26.0 | 0.00 | 0.43 | 0.01 | 56 | 1002.2 |
| 20260903183106 | 71 | 196 | 19.0 | 27.0 | 0.00 | 0.43 | 0.01 | 55 | 1002.1 |
| 20260903181609 | 70 | 215 | 17.0 | 24.0 | 0.00 | 0.43 | 0.01 | 56 | 1002.2 |
| 20260903180107 | 69 | 195 | 18.0 | 31.0 | 0.00 | 0.43 | 0.01 | 57 | 1002.2 |
| 20260903174608 | 69 | 206 | 16.0 | 26.0 | 0.00 | 0.43 | 0.01 | 56 | 1002.3 |
| 20260903173109 | 69 | 195 | 15.0 | 28.0 | 0.00 | 0.43 | 0.01 | 56 | 1002.4 |
| 20260903171616 | 69 | 191 | 14.0 | 26.0 | 0.00 | 0.43 | 0.01 | 58 | 1002.3 |
| 20260903170106 | 68 | 155 | 18.0 | 28.0 | 0.00 | 0.43 | 0.01 | 61 | 1002.3 |
| 20260903164642 | 67 | 167 | 16.0 | 25.0 | 0.00 | 0.43 | 0.01 | 61 | 1002.3 |
| 20260903163106 | 66 | 187 | 18.0 | 27.0 | 0.00 | 0.43 | 0.01 | 63 | 1002.3 |
| 20260903161607 | 66 | 174 | 18.0 | 28.0 | 0.00 | 0.43 | 0.01 | 67 | 1002.3 |
| 20260903160107 | 65 | 193 | 15.0 | 23.0 | 0.00 | 0.43 | 0.01 | 70 | 1002.3 |
| 20260903154606 | 63 | 202 | 16.0 | 22.0 | 0.00 | 0.43 | 0.01 | 73 | 1002.3 |
| 20260903153108 | 62 | 203 | 12.0 | 20.0 | 0.00 | 0.43 | 0.01 | 75 | 1002.4 |
| 20260903151608 | 60 | 206 | 11.0 | 23.0 | 0.00 | 0.43 | 0.01 | 79 | 1002.3 |
| 20260903150108 | 58 | 213 | 12.0 | 19.0 | 0.00 | 0.43 | 0.01 | 82 | 1002.3 |
| 20260903144614 | 57 | 183 | 12.0 | 20.0 | 0.00 | 0.43 | 0.01 | 84 | 1002.3 |
| 20260903143106 | 56 | 201 | 14.0 | 21.0 | 0.00 | 0.43 | 0.01 | 85 | 1002.3 |
| 20260903141606 | 56 | 206 | 14.0 | 20.0 | 0.00 | 0.43 | 0.01 | 87 | 1002.3 |
| 20260903140108 | 56 | 205 | 13.0 | 21.0 | 0.00 | 0.43 | 0.01 | 87 | 1002.4 |
| 20260903134620 | 55 | 199 | 13.0 | 20.0 | 0.00 | 0.43 | 0.01 | 88 | 1002.4 |
| 20260903133106 | 55 | 194 | 12.0 | 18.0 | 0.00 | 0.43 | 0.01 | 90 | 1002.2 |
| 20260903131608 | 55 | 201 | 10.0 | 17.0 | 0.00 | 0.43 | 0.01 | 91 | 1002.0 |
| 20260903130112 | 56 | 189 | 12.0 | 17.0 | 0.00 | 0.43 | 0.01 | 91 | 1001.8 |
| 20260903124622 | 56 | 214 | 10.0 | 16.0 | 0.00 | 0.43 | 0.01 | 91 | 1001.6 |
| 20260903123108 | 57 | 193 | 12.0 | 21.0 | 0.00 | 0.43 | 0.01 | 91 | 1001.6 |
| 20260903121615 | 58 | 200 | 13.0 | 21.0 | 0.00 | 0.43 | 0.01 | 92 | 1001.4 |
| 20260903120115 | 58 | 175 | 15.0 | 23.0 | 0.00 | 0.43 | 0.01 | 93 | 1001.4 |
| 20260903114605 | 59 | 175 | 18.0 | 27.0 | 0.00 | 0.43 | 0.01 | 94 | 1001.6 |
| 20260903113147 | 59 | 180 | 16.0 | 26.0 | 0.00 | 0.43 | 0.01 | 94 | 1001.7 |
| 20260903111606 | 59 | 176 | 14.0 | 24.0 | 0.00 | 0.43 | 0.01 | 95 | 1001.7 |
| 20260903110109 | 59 | 139 | 14.0 | 27.0 | 0.00 | 0.43 | 0.01 | 95 | 1001.7 |
| 20260903104612 | 59 | 154 | 13.0 | 24.0 | 0.00 | 0.43 | 0.01 | 95 | 1001.9 |
| 20260903103109 | 59 | 165 | 12.0 | 21.0 | 0.00 | 0.43 | 0.01 | 96 | 1002.1 |
| 20260903101617 | 59 | 162 | 15.0 | 21.0 | 0.00 | 0.43 | 0.01 | 96 | 1002.2 |
| 20260903100106 | 59 | 162 | 15.0 | 24.0 | 0.00 | 0.43 | 0.01 | 96 | 1002.3 |
| 20260903094609 | 58 | 145 | 13.0 | 20.0 | 0.00 | 0.43 | 0.01 | 96 | 1002.3 |
| 20260903093108 | 58 | 130 | 12.0 | 20.0 | 0.00 | 0.43 | 0.01 | 95 | 1002.2 |
| 20260903091605 | 58 | 138 | 8.0 | 13.0 | 0.00 | 0.43 | 0.01 | 95 | 1002.4 |
| 20260903090106 | 58 | 135 | 9.0 | 19.0 | 0.00 | 0.43 | 0.01 | 95 | 1002.6 |
| 20260903084610 | 58 | 102 | 6.0 | 12.0 | 0.00 | 0.43 | 0.01 | 95 | 1002.7 |
| 20260903083103 | 58 | 125 | 6.0 | 12.0 | 0.00 | 0.43 | 0.01 | 95 | 1002.4 |
| 20260903081605 | 58 | 117 | 6.0 | 12.0 | 0.00 | 0.43 | 0.01 | 95 | 1002.6 |
| 20260903080105 | 59 | 133 | 5.0 | 9.0 | 0.00 | 0.43 | 0.01 | 95 | 1003.2 |
| 20260903074605 | 59 | 110 | 3.0 | 9.0 | 0.00 | 0.43 | 0.01 | 95 | 1003.3 |
| 20260903073111 | 60 | 96 | 5.0 | 8.0 | 0.00 | 0.43 | 0.01 | 95 | 1002.9 |